Precipitable_Water
0.62 0.60 0.58 0.56 0.54 0.50 0.48 0.48 0.48 0.48 0.47 0.45 0.42 0.40 0.40 0.40 0.44 0.64 0.49 0.46 0.48 0.51 0.57 0.54 0.54 0.48 0.43 0.34 0.37 0.35 0.24 0.22 0.27 0.31 0.41 0.48 0.41 0.44 0.50 0.47 0.47 0.52 0.55 0.61 0.77
0.60 0.57 0.56 0.55 0.52 0.50 0.49 0.50 0.49 0.48 0.47 0.45 0.43 0.40 0.39 0.39 0.38 0.48 0.54 0.51 0.49 0.47 0.45 0.39 0.36 0.40 0.38 0.37 0.38 0.33 0.28 0.31 0.37 0.37 0.34 0.35 0.33 0.34 0.32 0.33 0.41 0.45 0.63 0.64 0.60
0.59 0.58 0.58 0.55 0.50 0.49 0.50 0.50 0.48 0.47 0.45 0.43 0.42 0.40 0.39 0.41 0.42 0.51 0.54 0.47 0.45 0.43 0.42 0.40 0.36 0.36 0.33 0.39 0.40 0.38 0.30 0.31 0.34 0.36 0.36 0.34 0.33 0.34 0.32 0.29 0.34 0.42 0.52 0.57 0.55
0.61 0.62 0.60 0.55 0.52 0.52 0.52 0.49 0.48 0.46 0.45 0.44 0.43 0.41 0.37 0.47 0.28 0.54 0.46 0.39 0.36 0.40 0.40 0.38 0.35 0.31 0.31 0.29 0.36 0.33 0.34 0.31 0.32 0.37 0.33 0.29 0.33 0.30 0.28 0.30 0.44 0.43 0.44 0.43 0.41
0.64 0.66 0.63 0.57 0.53 0.54 0.52 0.50 0.48 0.47 0.46 0.44 0.42 0.42 0.41 0.41 0.40 0.51 0.45 0.40 0.39 0.39 0.36 0.35 0.31 0.35 0.33 0.33 0.31 0.30 0.34 0.37 0.39 0.32 0.30 0.31 0.31 0.32 0.29 0.33 0.42 0.40 0.38 0.37 0.38
0.64 0.67 0.62 0.58 0.55 0.54 0.52 0.49 0.47 0.48 0.45 0.44 0.45 0.48 0.49 0.36 0.59 0.59 0.54 0.51 0.48 0.46 0.41 0.37 0.33 0.33 0.28 0.28 0.30 0.30 0.29 0.29 0.26 0.25 0.26 0.29 0.33 0.32 0.31 0.34 0.40 0.42 0.42 0.39 0.38
0.63 0.65 0.60 0.58 0.56 0.55 0.51 0.47 0.45 0.45 0.44 0.44 0.45 0.48 0.44 0.45 0.59 0.60 0.57 0.58 0.56 0.50 0.42 0.42 0.38 0.35 0.32 0.27 0.31 0.29 0.24 0.26 0.26 0.27 0.29 0.32 0.28 0.32 0.37 0.40 0.39 0.41 0.43 0.45 0.41
0.60 0.61 0.57 0.56 0.55 0.53 0.50 0.46 0.44 0.44 0.46 0.44 0.46 0.51 0.41 0.51 0.52 0.53 0.46 0.54 0.56 0.55 0.49 0.49 0.48 0.41 0.38 0.39 0.35 0.33 0.34 0.27 0.32 0.31 0.34 0.36 0.32 0.43 0.50 0.48 0.47 0.46 0.48 0.50 0.51
0.57 0.55 0.52 0.52 0.49 0.48 0.46 0.44 0.45 0.46 0.47 0.50 0.49 0.49 0.35 0.52 0.46 0.47 0.44 0.45 0.47 0.50 0.49 0.50 0.44 0.41 0.42 0.38 0.34 0.36 0.33 0.37 0.40 0.45 0.44 0.43 0.38 0.46 0.51 0.49 0.46 0.49 0.51 0.54 0.54
0.58 0.55 0.53 0.52 0.49 0.50 0.48 0.46 0.51 0.52 0.55 0.59 0.52 0.38 0.44 0.40 0.44 0.40 0.46 0.45 0.36 0.38 0.41 0.45 0.47 0.42 0.42 0.40 0.32 0.36 0.36 0.37 0.33 0.38 0.39 0.36 0.35 0.38 0.40 0.34 0.33 0.37 0.42 0.52 0.58
0.63 0.57 0.56 0.57 0.54 0.54 0.53 0.51 0.44 0.54 0.48 0.35 0.36 0.35 0.37 0.43 0.45 0.39 0.50 0.43 0.39 0.38 0.37 0.46 0.40 0.32 0.38 0.42 0.41 0.37 0.33 0.28 0.30 0.33 0.31 0.30 0.27 0.25 0.29 0.32 0.33 0.44 0.49 0.53 0.55
0.64 0.62 0.60 0.57 0.55 0.57 0.58 0.45 0.44 0.49 0.34 0.45 0.42 0.38 0.43 0.45 0.40 0.41 0.51 0.41 0.33 0.30 0.33 0.38 0.33 0.40 0.42 0.38 0.31 0.24 0.23 0.24 0.27 0.30 0.30 0.24 0.19 0.23 0.25 0.31 0.38 0.41 0.46 0.48 0.49
0.69 0.64 0.62 0.58 0.60 0.60 0.49 0.46 0.56 0.56 0.39 0.42 0.41 0.40 0.43 0.41 0.43 0.39 0.42 0.37 0.35 0.28 0.26 0.24 0.27 0.34 0.31 0.24 0.24 0.24 0.24 0.23 0.20 0.22 0.21 0.20 0.16 0.16 0.21 0.34 0.41 0.45 0.48 0.49 0.47
0.65 0.59 0.58 0.56 0.62 0.52 0.51 0.55 0.64 0.58 0.31 0.34 0.35 0.38 0.37 0.40 0.42 0.42 0.40 0.38 0.46 0.34 0.31 0.25 0.30 0.29 0.25 0.22 0.25 0.22 0.23 0.19 0.18 0.16 0.12 0.21 0.10 0.17 0.22 0.36 0.43 0.44 0.46 0.47 0.47
0.59 0.53 0.51 0.53 0.55 0.49 0.58 0.57 0.62 0.55 0.24 0.34 0.35 0.39 0.35 0.35 0.37 0.39 0.36 0.39 0.35 0.27 0.25 0.29 0.32 0.26 0.19 0.22 0.21 0.16 0.24 0.22 0.18 0.12 0.12 0.15 0.16 0.17 0.27 0.36 0.47 0.45 0.46 0.46 0.44
0.57 0.50 0.56 0.55 0.55 0.56 0.59 0.62 0.56 0.30 0.25 0.31 0.32 0.31 0.30 0.31 0.31 0.34 0.31 0.31 0.28 0.23 0.24 0.25 0.30 0.24 0.26 0.19 0.20 0.24 0.23 0.14 0.11 0.12 0.09 0.12 0.13 0.10 0.13 0.18 0.29 0.39 0.40 0.41 0.41
0.55 0.50 0.54 0.60 0.60 0.60 0.61 0.56 0.28 0.26 0.36 0.28 0.28 0.27 0.28 0.25 0.23 0.26 0.22 0.19 0.16 0.12 0.16 0.19 0.17 0.30 0.27 0.15 0.13 0.13 0.10 0.08 0.08 0.09 0.07 0.12 0.10 0.09 0.12 0.17 0.26 0.33 0.40 0.44 0.47
0.55 0.59 0.55 0.62 0.67 0.62 0.57 0.40 0.28 0.32 0.31 0.32 0.25 0.25 0.22 0.23 0.20 0.18 0.18 0.17 0.18 0.12 0.10 0.11 0.14 0.25 0.20 0.13 0.11 0.11 0.12 0.10 0.07 0.07 0.08 0.10 0.08 0.11 0.21 0.35 0.38 0.41 0.45 0.48 0.51
0.57 0.63 0.66 0.69 0.67 0.62 0.47 0.31 0.28 0.28 0.30 0.28 0.23 0.19 0.21 0.19 0.16 0.14 0.14 0.14 0.14 0.12 0.09 0.09 0.10 0.15 0.12 0.12 0.12 0.11 0.10 0.15 0.11 0.12 0.10 0.10 0.10 0.15 0.22 0.43 0.51 0.53 0.55 0.55 0.50
0.64 0.61 0.68 0.66 0.67 0.56 0.43 0.33 0.33 0.36 0.30 0.24 0.18 0.20 0.16 0.18 0.13 0.12 0.13 0.16 0.15 0.14 0.13 0.14 0.08 0.12 0.12 0.15 0.16 0.14 0.15 0.11 0.12 0.08 0.08 0.09 0.08 0.12 0.21 0.25 0.30 0.36 0.35 0.36 0.40
0.63 0.54 0.78 0.64 0.62 0.48 0.36 0.35 0.37 0.37 0.25 0.21 0.19 0.18 0.15 0.15 0.13 0.12 0.13 0.17 0.15 0.15 0.14 0.14 0.13 0.12 0.14 0.12 0.12 0.12 0.12 0.13 0.14 0.15 0.13 0.12 0.09 0.20 0.18 0.18 0.19 0.22 0.24 0.27 0.29
0.65 0.53 0.79 0.63 0.42 0.41 0.36 0.37 0.43 0.33 0.25 0.21 0.20 0.18 0.16 0.16 0.13 0.12 0.12 0.17 0.18 0.15 0.12 0.17 0.13 0.09 0.10 0.15 0.16 0.15 0.15 0.20 0.16 0.12 0.13 0.14 0.11 0.15 0.18 0.20 0.19 0.19 0.20 0.24 0.28
0.54 0.59 0.71 0.64 0.39 0.37 0.41 0.40 0.35 0.26 0.23 0.20 0.18 0.19 0.18 0.16 0.12 0.14 0.15 0.23 0.17 0.16 0.17 0.18 0.11 0.07 0.09 0.14 0.18 0.18 0.18 0.17 0.15 0.15 0.11 0.11 0.11 0.18 0.19 0.20 0.20 0.20 0.24 0.27 0.29
0.56 0.51 0.58 0.51 0.50 0.43 0.38 0.35 0.27 0.28 0.24 0.23 0.21 0.19 0.17 0.16 0.17 0.16 0.17 0.23 0.19 0.18 0.19 0.15 0.11 0.11 0.09 0.12 0.14 0.12 0.13 0.14 0.14 0.12 0.12 0.11 0.14 0.17 0.18 0.19 0.21 0.23 0.24 0.28 0.28
0.67 0.56 0.53 0.35 0.30 0.38 0.41 0.34 0.27 0.21 0.24 0.23 0.20 0.18 0.17 0.16 0.17 0.17 0.17 0.23 0.24 0.23 0.19 0.18 0.13 0.17 0.17 0.15 0.15 0.15 0.13 0.13 0.13 0.14 0.13 0.14 0.14 0.18 0.20 0.23 0.24 0.25 0.26 0.28 0.31
0.55 0.52 0.52 0.47 0.31 0.30 0.36 0.30 0.27 0.25 0.22 0.19 0.18 0.19 0.18 0.17 0.18 0.17 0.19 0.20 0.19 0.23 0.19 0.23 0.16 0.18 0.14 0.15 0.14 0.13 0.15 0.17 0.18 0.18 0.18 0.18 0.17 0.23 0.25 0.26 0.27 0.27 0.27 0.27 0.36
0.54 0.55 0.49 0.41 0.36 0.30 0.31 0.30 0.27 0.29 0.27 0.28 0.22 0.22 0.20 0.23 0.24 0.24 0.23 0.22 0.21 0.17 0.17 0.18 0.17 0.15 0.10 0.15 0.15 0.14 0.17 0.18 0.19 0.21 0.21 0.17 0.21 0.27 0.29 0.32 0.34 0.33 0.31 0.36 0.38
Wind_Speed
13 12 10 9 8 7 6 5 5 5 5 6 7 7 7 7 6 4 4 6 7 8 10 11 11 10 10 9 9 10 10 11 14 12 10 13 15 16 16 17 17 16 15 12 11
14 12 11 10 9 8 8 7 7 7 8 8 9 9 9 9 7 4 6 8 8 9 11 12 11 12 11 10 10 10 13 13 15 15 17 18 20 21 21 22 18 19 10 13 16
14 13 12 11 10 9 9 9 9 9 9 10 10 11 11 10 8 6 7 8 10 12 13 14 14 14 15 14 13 13 15 19 19 17 18 20 22 23 23 22 22 18 19 21 23
16 14 13 12 11 10 10 10 10 11 11 11 11 12 12 9 8 8 10 12 14 14 15 14 15 16 15 16 16 16 19 21 22 20 22 24 25 23 24 24 20 21 22 25 27
17 16 14 13 12 12 12 12 12 12 13 13 13 13 11 12 9 12 14 15 15 15 16 16 18 18 17 20 22 22 21 22 24 27 27 27 24 24 26 24 23 25 26 27 26
19 17 16 15 14 14 14 14 14 14 14 15 15 15 14 15 14 15 17 18 19 19 19 20 19 21 22 22 22 24 25 26 28 29 29 25 23 26 26 26 23 24 25 27 27
20 19 18 17 16 16 16 17 17 17 17 17 17 16 18 17 17 18 20 22 22 22 23 23 23 23 25 27 23 26 29 30 29 29 18 22 29 26 24 23 28 29 32 30 28
21 20 19 19 18 18 18 19 19 19 19 18 18 18 20 18 21 21 22 22 21 23 23 24 24 26 26 27 28 29 29 27 24 16 18 22 27 27 28 31 33 32 27 27 25
21 20 19 19 19 19 20 20 21 20 20 21 20 20 19 19 19 23 23 23 24 24 22 23 23 24 25 26 26 25 24 24 24 25 29 29 34 32 32 32 32 31 29 24 23
19 18 18 18 19 19 20 21 20 21 20 20 20 20 19 21 25 25 23 25 25 24 24 23 21 22 22 22 21 23 24 25 29 28 30 32 33 32 30 32 31 29 26 18 17
17 16 16 16 17 17 17 17 17 18 18 18 22 23 24 25 26 23 23 25 24 23 23 19 20 22 19 19 22 25 27 29 28 28 29 29 32 32 31 29 27 12 14 14 17
18 16 15 15 15 16 16 15 16 19 21 21 22 23 21 23 22 18 21 20 20 20 21 19 20 16 19 22 25 25 26 27 27 26 27 31 33 30 28 21 15 15 16 17 20
19 17 16 16 16 15 13 14 17 19 20 19 18 20 19 19 18 19 19 19 18 19 17 19 19 19 20 21 21 21 22 24 27 29 28 29 28 28 27 16 14 16 17 18 20
20 19 18 17 16 15 14 15 15 15 17 15 14 13 15 15 15 16 15 15 15 15 16 17 15 16 17 19 19 19 23 26 26 26 25 26 30 26 25 9 12 15 18 19 20
22 19 18 16 16 15 15 15 14 13 14 12 11 12 12 13 14 11 14 14 15 16 15 14 14 15 16 17 19 22 21 23 26 28 29 24 21 23 19 11 11 17 20 22 25
22 20 18 18 16 16 15 14 13 12 13 10 11 10 10 10 11 13 12 13 14 15 15 16 13 11 11 18 19 20 22 27 25 21 22 23 23 22 19 21 21 20 23 26 28
23 21 19 18 17 16 15 13 13 14 11 10 11 12 10 10 10 11 10 9 9 12 9 12 12 7 13 18 19 21 24 21 17 18 19 27 26 27 31 28 24 22 23 27 30
24 22 20 19 18 16 15 15 16 12 15 11 11 12 12 11 9 10 10 8 7 11 13 10 10 11 15 17 19 23 18 17 19 22 29 31 22 25 29 20 21 23 25 28 31
25 22 21 19 18 17 17 17 15 15 12 12 12 14 11 11 12 10 7 7 8 9 10 12 11 15 19 17 19 18 20 21 23 26 26 26 34 29 25 20 23 25 29 30 33
24 22 20 19 18 18 19 18 18 15 14 13 14 11 11 8 10 8 7 7 8 9 12 11 16 18 16 20 20 19 21 21 20 21 25 27 39 24 25 30 34 30 35 38 41
24 23 22 21 20 20 20 19 19 15 15 13 13 12 12 11 12 10 8 8 10 11 13 16 15 17 23 23 22 21 22 24 26 26 27 29 32 22 40 43 41 43 43 44 45
27 24 23 23 21 22 22 21 17 16 16 15 15 14 14 12 12 12 12 10 11 14 15 15 17 19 25 25 22 20 23 23 24 30 31 31 39 38 37 39 43 43 44 44 42
28 26 24 23 22 23 19 18 18 16 17 15 14 14 14 14 13 14 12 11 13 15 14 17 16 20 16 13 16 20 26 31 33 33 36 34 33 34 40 40 40 41 39 41 42
26 24 23 26 25 22 22 22 19 17 16 16 14 14 14 14 14 13 14 13 14 15 15 18 19 21 22 26 30 34 34 33 32 31 33 36 41 38 40 41 40 40 41 38 41
25 24 24 22 27 24 23 21 21 18 18 17 16 17 16 15 16 16 16 14 16 16 17 18 20 23 27 30 33 34 35 34 33 32 32 38 40 38 39 41 43 42 40 40 35
26 26 24 22 26 26 23 22 22 19 18 19 18 17 17 17 17 15 16 17 18 16 18 20 22 26 30 31 30 32 35 32 29 29 32 35 39 39 42 44 43 39 41 40 32
25 24 24 23 23 24 25 23 22 19 17 16 19 17 17 15 15 16 18 20 20 20 21 21 22 24 25 27 33 25 23 29 31 32 33 36 40 42 42 41 43 41 39 34 29
Wind_Direction
209 212 216 221 227 237 247 259 273 285 295 303 309 312 315 314 300 294 311 315 325 329 331 322 308 320 314 314 303 297 293 293 313 334 310 314 317 310 308 302 307 301 288 288 314
213 216 221 228 236 244 253 262 272 281 288 294 299 302 305 305 286 296 295 307 315 320 324 331 328 321 315 302 302 300 296 297 318 307 303 305 309 309 305 302 303 298 303 305 300
216 219 225 231 239 248 256 265 272 279 284 289 294 297 299 297 279 276 298 304 309 312 310 310 309 307 302 302 299 300 300 303 303 308 306 301 301 304 304 301 300 304 297 298 298
220 223 229 235 242 250 259 266 272 277 282 287 291 294 296 276 285 283 292 297 300 304 305 311 313 309 307 300 299 299 296 297 300 304 301 298 298 300 298 297 301 297 298 298 297
224 228 233 239 247 253 260 267 272 276 280 284 287 291 288 279 280 283 293 295 298 300 302 304 304 306 300 303 299 296 299 302 300 299 297 295 295 299 298 297 294 297 300 298 297
228 232 238 244 250 256 263 268 272 275 277 281 284 287 277 281 280 289 292 293 293 294 296 297 300 299 295 294 298 297 296 296 296 294 291 293 299 300 294 289 294 299 300 300 298
231 236 241 247 253 259 265 269 272 274 276 279 281 281 278 276 284 290 293 292 290 291 291 291 293 293 295 295 293 298 295 295 295 293 291 295 298 295 304 300 298 295 299 298 297
233 239 244 250 256 262 267 270 272 272 274 276 279 279 277 280 286 287 295 294 290 292 291 291 289 288 289 290 291 292 290 293 297 295 293 293 299 300 302 300 297 295 294 297 299
235 240 246 252 258 264 269 271 271 270 272 274 275 277 276 280 288 291 291 292 292 291 291 293 289 289 291 289 292 291 300 307 306 302 304 302 301 302 302 299 297 294 292 291 293
234 240 248 255 261 267 272 271 268 271 268 271 271 274 274 282 291 291 288 290 289 290 290 284 289 290 286 291 300 308 305 302 302 304 301 300 300 302 303 300 297 293 292 290 297
234 240 249 257 263 269 274 269 266 265 268 272 277 278 280 287 285 282 294 290 285 281 284 295 289 291 300 304 301 302 301 301 300 304 305 303 303 304 303 298 295 298 305 306 305
233 241 249 257 265 273 270 268 270 270 275 270 276 277 281 285 283 282 295 290 292 286 292 285 284 301 302 301 300 299 298 300 305 308 310 306 303 303 302 301 298 297 297 303 303
236 244 251 258 264 268 270 272 275 275 272 267 275 279 281 282 281 289 296 291 287 287 290 287 287 304 304 303 302 300 302 310 310 310 307 304 306 311 309 284 292 297 299 305 309
237 246 253 258 259 264 266 275 278 276 274 261 269 279 280 279 274 288 294 292 283 293 297 288 299 302 304 303 311 306 312 310 310 312 311 314 306 312 312 287 288 298 302 306 308
238 244 250 254 259 263 267 272 276 271 271 270 273 279 279 278 282 284 291 289 286 292 290 296 294 304 302 316 312 305 313 308 308 306 307 313 303 314 324 346 298 298 301 305 307
236 241 247 249 255 261 265 268 265 263 262 265 273 276 268 284 284 287 291 288 284 287 282 282 294 294 314 314 307 304 308 313 308 300 301 307 326 318 320 315 298 291 297 301 305
234 238 244 249 253 259 258 256 258 259 262 259 269 270 270 277 282 289 290 309 313 302 299 299 296 299 320 320 321 328 320 316 319 317 311 326 317 307 311 306 303 298 300 304 305
232 236 240 247 251 253 249 250 254 258 255 260 263 265 269 277 273 281 281 270 329 313 294 300 290 312 321 322 317 315 314 314 313 317 312 315 305 316 325 322 312 305 302 304 306
229 233 239 246 248 244 244 248 249 263 260 257 257 260 251 260 271 272 282 289 301 321 309 304 290 317 309 315 316 314 312 320 307 303 302 305 306 316 331 333 321 313 308 306 307
225 231 237 243 244 242 244 248 249 253 257 257 252 255 263 248 262 261 260 285 289 305 307 303 299 305 308 315 304 295 308 314 311 310 308 309 309 309 329 321 316 307 306 304 303
226 234 239 240 241 241 243 244 242 246 247 249 253 254 259 259 267 257 274 274 283 298 302 302 296 302 306 302 307 313 302 307 308 303 301 305 304 312 312 311 308 304 305 304 303
230 237 237 235 239 238 240 239 244 238 240 242 252 255 253 255 253 263 273 278 285 296 301 308 302 303 299 299 307 314 308 306 306 306 302 302 299 307 307 311 312 311 308 308 308
232 233 235 232 236 234 233 230 238 236 236 238 242 253 256 251 257 262 266 275 284 293 302 308 299 307 311 316 310 311 316 309 305 303 301 301 303 313 313 312 313 312 313 312 311
226 228 231 230 235 238 226 229 233 241 236 244 244 249 250 250 256 262 264 270 280 289 296 298 294 294 296 301 302 304 306 306 303 301 301 299 304 311 312 313 313 313 312 310 311
226 228 227 229 228 231 222 229 228 233 238 238 244 245 246 252 256 260 267 268 274 278 289 291 293 298 298 300 302 302 303 305 304 303 301 306 305 310 314 315 314 310 309 311 312
223 228 227 231 223 225 226 230 228 230 230 238 247 244 250 253 260 271 270 272 278 276 286 288 293 300 300 300 302 308 306 305 305 310 308 308 307 312 313 311 310 310 311 310 307
225 227 226 224 226 226 228 231 233 224 243 253 242 247 250 263 266 271 276 276 279 281 287 290 296 304 301 311 309 304 321 316 312 315 313 310 314 318 320 322 319 315 313 307 306